Location: Cheyres
(46.8153°N, 6.7877°E)
Time: 04:20:51
(UTC+00:00)

BREEZE-M DEB (TANK) - Pass Details

Date: 11 May 2021
Orbit: 284 x 18730 km, 52.5° (Epoch: 18 June)

Event Time Altitude Azimuth Distance (km) Brightness Sun altitude
Rises 21:43:37 0° 270° (W) 6,619 8.7 -20.8°
Reaches altitude 10° 21:50:05 10° 277° (W) 3,736 7.4 -21.3°
Maximum altitude 21:56:43 38° 346° (NNW) 912 4.4 -21.8°
Enters shadow 21:59:01 13° 56° (NE) 1,312 4.9 -22.0°
